Location: *
(13.0000°N, 151.6000°E)
Time: 14:58:44
(UTC+00:00)

Sea Lan Dem Rocket - Pass Details

Date: 01 April 2020
Orbit: 555 x 35991 km, 1.5° (Epoch: 03 June)

Event Time Altitude Azimuth Distance (km) Brightness Sun altitude
Exits shadow 18:09:51 19° 181° (S) 1,813 4.3 -24.8°
Maximum altitude 18:10:57 20° 162° (SSE) 1,958 4.6 -24.5°
Drops below altitude 10° 18:17:06 10° 116° (ESE) 4,283 7.0 -23.1°
Sets 18:26:05 0° 102° (ESE) 8,097 8.9 -20.9°
